SHIJIAN-17 (SJ-17) (41838 NORAD) Tracking and Keplerian Element Data

This shows tracking and keplerian element data for the satellite.

Feedback or suggestion? Click here.




ElementValue
Catalog41838
NameSHIJIAN-17 (SJ-17)
Epoch Orbit623
Epoch Day198.97782141
Epoch Year2018
RAAN69.528
Inclination4.2807
Eccentricity0.0004374
Argument of Perigee220.9881
Mean Anonmoly91.4631
Mean Motion1.00273758
Decay Rate-2.89E-06
L11 41838U 16065A 18198.97782141 -.00000289 00000-0 00000-0 0 9998
L22 41838 4.2807 69.5280 0004374 220.9881 91.4631 1.00273758 6233

Live tracking and technical data element details for SHIJIAN-17 (SJ-17) (NORAD 41838). SHIJIAN-17 (SJ-17) can be tracked NOW for your location showing map with azimuth and elevation plus other details from your city location.

Track the satellite on the map from your city or location and see movement details for azimuth, elevation, latitude, longitude, range, height, and movement on the map or in text.







IsCatalogInMostPopularTable: catalog: 41838, numindb: 101
Update: records affected: 1



GetName: 41838 SHIJIAN-17 (SJ-17)

Hit Count: updated at: Wed, 18 Jul 2018 20:29:21 GMT